SV1DAY-13 Weather Reports


time (UTC)temp
C
wind
direction
speed
KPH
gust
KPH
rain 1hr
cm
rain 24hr
cm
rain mn
cm
humidity
%
barometer
mb
20260506231553 15 249 6.4 11.3 0.00 0.00 0.00 74 1015.7
20260506230040 15 249 11.3 14.5 0.00 0.00 0.00 75 1016.0
20260506224543 15 250 11.3 14.5 0.00 0.00 0.00 76 1016.2
20260506223040 15 260 12.9 20.9 0.00 0.00 0.00 77 1016.3
20260506221551 16 253 14.5 19.3 0.00 0.00 0.00 77 1016.4
20260506220053 16 254 14.5 19.3 0.00 0.00 0.00 77 1016.3
20260506214549 16 247 12.9 17.7 0.00 0.00 0.00 76 1016.3
20260506213045 16 252 11.3 17.7 0.00 0.00 0.00 76 1016.4
20260506211559 16 243 11.3 16.1 0.00 0.00 0.00 75 1016.5
20260506210054 16 251 8.0 14.5 0.00 0.00 0.00 75 1016.4
20260506204551 16 244 6.4 11.3 0.00 0.00 0.00 74 1016.5
20260506203046 16 246 4.8 8.0 0.00 0.00 0.00 72 1016.6
20260506201556 15 250 8.0 14.5 0.00 0.00 0.00 69 1016.5
20260506200040 15 246 6.4 11.3 0.00 0.00 0.00 65 1016.4
20260506194540 16 250 8.0 14.5 0.00 0.00 0.00 64 1016.3
20260506193057 17 252 8.0 12.9 0.00 0.00 0.00 61 1016.2
20260506191549 17 249 6.4 11.3 0.00 0.00 0.00 53 1016.1
20260506190044 17 249 4.8 6.4 0.00 0.00 0.00 43 1015.9
20260506184550 18 249 4.8 8.0 0.00 0.00 0.00 39 1015.8
20260506183041 18 249 3.2 6.4 0.00 0.00 0.00 39 1015.4
20260506181558 18 249 3.2 6.4 0.00 0.00 0.00 39 1015.4
20260506180053 18 249 4.8 8.0 0.00 0.00 0.00 40 1015.2
20260506174553 18 249 3.2 6.4 0.00 0.00 0.00 39 1015.2
20260506173122 18 249 1.6 8.0 0.00 0.00 0.00 40 1015.1
20260506171543 18 249 4.8 6.4 0.00 0.00 0.00 40 1014.8
20260506170041 18 249 3.2 6.4 0.00 0.00 0.00 41 1015.0
20260506164606 19 250 3.2 6.4 0.00 0.00 0.00 39 1015.0
20260506163104 19 250 3.2 9.7 0.00 0.00 0.00 38 1015.1
20260506161609 20 258 3.2 8.0 0.00 0.00 0.00 43 1015.1
20260506160046 20 229 4.8 9.7 0.00 0.00 0.00 44 1015.1
20260506154550 20 217 4.8 9.7 0.00 0.00 0.00 44 1015.2
20260506153047 20 219 6.4 9.7 0.00 0.00 0.00 44 1015.3
20260506151557 20 211 4.8 9.7 0.00 0.00 0.00 44 1015.3
20260506150051 19 244 4.8 11.3 0.00 0.00 0.00 48 1015.4
20260506144554 18 223 4.8 9.7 0.00 0.00 0.00 52 1015.6
20260506143050 19 272 4.8 12.9 0.00 0.00 0.00 49 1015.6
20260506141542 18 244 4.8 11.3 0.00 0.00 0.00 51 1015.7
20260506140042 19 215 4.8 11.3 0.00 0.00 0.00 54 1015.9
20260506134540 18 221 4.8 11.3 0.00 0.00 0.00 58 1015.8
20260506133055 18 242 4.8 11.3 0.00 0.00 0.00 57 1015.8
20260506131558 18 221 6.4 14.5 0.00 0.00 0.00 60 1015.7
20260506130100 18 221 3.2 9.7 0.00 0.00 0.00 58 1015.6
20260506124553 18 225 1.6 8.0 0.00 0.00 0.00 55 1015.7
20260506123044 18 189 3.2 9.7 0.00 0.00 0.00 60 1015.9
20260506121556 18 184 3.2 9.7 0.00 0.00 0.00 62 1016.1
20260506120052 18 193 3.2 9.7 0.00 0.00 0.00 61 1016.3
20260506114554 17 182 4.8 8.0 0.00 0.00 0.00 63 1016.3
20260506113054 18 138 1.6 12.9 0.00 0.00 0.00 62 1016.3
20260506111542 18 149 6.4 11.3 0.00 0.00 0.00 60 1016.4
20260506110040 18 173 6.4 14.5 0.00 0.00 0.00 61 1016.4
20260506104559 18 136 6.4 12.9 0.00 0.00 0.00 54 1016.3
20260506103058 18 123 8.0 14.5 0.00 0.00 0.00 53 1016.2
20260506101555 18 129 11.3 16.1 0.00 0.00 0.00 60 1016.3
20260506100101 18 107 11.3 16.1 0.00 0.00 0.00 54 1016.3
20260506094541 18 101 11.3 17.7 0.00 0.00 0.00 54 1016.3
20260506093056 18 121 9.7 14.5 0.00 0.00 0.00 53 1016.3
20260506091559 18 89 8.0 16.1 0.00 0.00 0.00 54 1016.3
20260506090047 18 109 11.3 19.3 0.00 0.00 0.00 59 1016.3
20260506084607 18 107 11.3 16.1 0.00 0.00 0.00 60 1016.3
20260506083046 18 106 9.7 16.1 0.00 0.00 0.00 55 1016.3
20260506081601 18 108 11.3 16.1 0.00 0.00 0.00 55 1016.3
20260506073052 18 94 9.7 16.1 0.00 0.00 0.00 53 1015.9
20260506071546 18 109 8.0 12.9 0.00 0.00 0.00 55 1015.7
20260506061549 17 99 8.0 14.5 0.00 0.00 0.00 60 1015.7
20260506044655 17 49 3.2 8.0 0.00 0.00 0.00 47 1014.9
20260506043057 17 69 4.8 9.7 0.00 0.00 0.00 47 1014.9
20260506041558 16 69 3.2 8.0 0.00 0.00 0.00 47 1014.7
20260506040014 16 81 4.8 8.0 0.00 0.00 0.00 47 1014.7
20260506034614 16 65 3.2 6.4 0.00 0.00 0.00 48 1014.6
20260506033103 16 78 6.4 9.7 0.00 0.00 0.00 47 1014.5
20260506031549 15 65 1.6 6.4 0.00 0.00 0.00 50 1014.5
20260506030041 15 251 0.0 0.0 0.00 0.00 0.00 55 1014.5
20260506024546 15 251 0.0 0.0 0.00 0.00 0.00 55 1014.3
20260506023101 12 251 0.0 0.0 0.00 0.00 0.00 64 1014.3
20260506021553 13 251 0.0 4.8 0.00 0.00 0.00 75 1014.4
20260506020053 14 248 8.0 11.3 0.00 0.00 0.00 77 1014.3
20260506014548 14 242 8.0 11.3 0.00 0.00 0.00 77 1014.4
20260506013043 15 250 6.4 17.7 0.00 0.00 0.00 76 1014.4
20260506011541 14 247 11.3 17.7 0.00 0.00 0.00 76 1014.2
20260506010040 15 244 9.7 12.9 0.00 0.00 0.00 75 1014.3
20260506004625 14 251 8.0 11.3 0.00 0.00 0.00 75 1014.2
20260506003110 15 242 6.4 8.0 0.00 0.00 0.00 74 1014.4
20260506001555 14 244 4.8 11.3 0.00 0.00 0.00 72 1014.3
20260506000046 13 240 6.4 11.3 0.00 0.00 0.00 70 1014.4
20260505234604 13 247 4.8 8.0 0.00 0.00 0.00 67 1014.4
20260505233041 13 249 6.4 8.0 0.00 0.00 0.00 64 1014.5